Flag for India Weather past 2 weeks in Sivaganga, Tamil Nadu, India

Now
73 °F

Fog.


Feels Like: 73 °F
Forecast: 68 / 82 °F
Wind: 9 mph from Northeast

Location: Tiruchchirapalli

Current Time: Dec 26, 2014 at 12:16:01 AM

Latest Report: Dec 25, 2014 at 11:40 PM


Visibility: 2 mi

Pressure: 29.92 "Hg

Humidity: 83%

Dew point: 68 °F

Location of SivagangaLocation

Historic Weather in Sivaganga — Graph

°F

Sivaganga temperature yesterday

Maximum temperature yesterday: 86 °F (at 2:40 PM)
Minimum temperature yesterday: 72 °F (at 5:10 AM)
Average temperature yesterday: 79 °F

Past Weeks' High & Low Weather Summary

 TemperatureHumidityPressure
High90 °F (Dec 11, 2:40 PM)100% (Dec 11, 6:10 AM)30.01 "Hg (Dec 11, 6:10 AM)
Low70 °F (Dec 23, 5:40 AM)55% (Dec 21, 12:40 PM)29.77 "Hg (Dec 21, 4:40 PM)
Average78 °F82%29.91 "Hg
* Reported Dec 10 10:40 PM — Dec 25 10:40 PM, Sivaganga, Weather by CustomWeather, © 2014

Note: Actual official high and low records may vary slightly from our data, if they occured in-between our weather recording intervals... More about our weather records

Advertising

Sivaganga weather history for previous 24 hours

 ConditionsComfort  
Time TempWeatherWind HumidityBarometerVisibility
10:40 PM
Dec 25
75 °FFog.8 mph78%29.92 "Hg2 mi
10:10 PM77 °FFog.6 mph79%29.92 "Hg2 mi
9:40 PM77 °FFog.7 mph79%29.92 "Hg2 mi
8:40 PM77 °FFog.8 mph79%29.92 "Hg2 mi
7:40 PM79 °FHaze.6 mph74%29.92 "Hg3 mi
7:10 PM79 °FHaze.6 mph74%29.89 "Hg3 mi
6:40 PM81 °FHaze.6 mph66%29.89 "Hg3 mi
5:40 PM82 °FPassing clouds.7 mph62%29.86 "Hg4 mi
4:40 PM84 °FPassing clouds.8 mph58%29.86 "Hg5 mi
4:10 PM86 °FPassing clouds.12 mph59%29.86 "Hg5 mi
3:40 PM86 °FPassing clouds.10 mph59%29.83 "Hg5 mi
3:10 PM86 °FPassing clouds.12 mph59%29.86 "Hg5 mi
2:40 PM86 °FPassing clouds.13 mph59%29.86 "Hg5 mi
1:40 PM84 °FScattered clouds.12 mph62%29.89 "Hg4 mi
1:10 PM84 °FScattered clouds.12 mph62%29.89 "Hg4 mi
12:40 PM84 °FScattered clouds.14 mph62%29.92 "Hg4 mi
11:40 AM82 °FScattered clouds.15 mph66%29.95 "Hg3 mi
10:40 AM81 °FScattered clouds.9 mph70%29.98 "Hg2 mi
9:40 AM79 °FFog.12 mph74%29.98 "Hg2 mi
9:10 AM79 °FFog.16 mph74%29.98 "Hg2 mi
8:40 AM77 °FFog.14 mph83%29.98 "Hg2 mi
7:40 AM73 °FFog.7 mph89%29.95 "Hg1 mi
7:10 AM73 °FFog.7 mph89%29.95 "Hg1 mi
6:40 AM72 °FFog.3 mph94%29.92 "Hg1 mi
6:10 AM72 °FFog.3 mph94%29.92 "Hg1 mi
5:40 AM72 °FFog.5 mph100%29.89 "Hg2 mi
5:10 AM72 °FFog.3 mph94%29.89 "Hg2 mi
2:40 AM73 °FFog.7 mph89%29.89 "Hg2 mi
2:10 AM75 °FFog.7 mph83%29.92 "Hg2 mi
1:40 AM75 °FFog.7 mph83%29.92 "Hg2 mi
1:10 AM75 °FFog.10 mph83%29.95 "Hg2 mi
12:40 AM75 °FFog.8 mph83%29.95 "Hg2 mi
Weather by CustomWeather, © 2014

See weather overviewHow to use our weather pages